GW4602 Weather Reports


Display with metric or nautical units.
time (UTC)temp
F
wind
direction
speed
MPH
gust
MPH
rain 1hr
in
rain 24hr
in
rain mn
in
humidity
%
barometer
mb
20260504044055 42 312 0.0 0.0 0.00 0.00 0.00 80 1019.5
20260504043553 42 312 0.0 0.0 0.00 0.00 0.00 78 1019.7
20260504043049 42 257 0.0 0.0 0.00 0.00 0.00 77 1019.7
20260504042547 42 274 0.0 0.0 0.00 0.00 0.00 78 1019.6
20260504042043 42 46 0.0 0.0 0.00 0.00 0.00 78 1019.5
20260504041539 42 14 0.0 0.0 0.00 0.00 0.00 77 1019.5
20260504041035 42 344 0.0 0.0 0.00 0.00 0.00 80 1019.6
20260504040533 42 346 0.0 0.0 0.00 0.00 0.00 80 1019.5
20260504040029 42 346 0.0 0.0 0.00 0.00 0.00 81 1019.5
20260504035526 41 346 0.0 0.0 0.00 0.00 0.00 81 1019.5
20260504035022 41 300 0.0 0.0 0.00 0.00 0.00 79 1019.5
20260504034520 41 301 0.0 0.0 0.00 0.00 0.00 79 1019.4
20260504034017 41 303 0.0 0.0 0.00 0.00 0.00 79 1019.6
20260504033515 40 100 0.0 0.0 0.00 0.00 0.00 82 1019.3
20260504033012 40 100 0.0 0.0 0.00 0.00 0.00 82 1019.1
20260504032509 40 100 0.0 0.0 0.00 0.00 0.00 83 1019.5
20260504032005 40 100 0.0 0.0 0.00 0.00 0.00 82 1019.0
20260504031502 40 287 0.0 0.0 0.00 0.00 0.00 79 1019.3
20260504030959 40 287 0.0 0.0 0.00 0.00 0.00 78 1019.4
20260504030456 40 293 0.0 0.0 0.00 0.00 0.00 78 1019.3
20260504025952 40 293 0.0 0.0 0.00 0.00 0.00 76 1019.2
20260504025449 41 293 0.0 0.0 0.00 0.00 0.00 76 1019.5
20260504024946 41 293 0.0 0.0 0.00 0.00 0.00 75 1019.1
20260504024443 41 222 0.0 0.0 0.00 0.00 0.00 74 1019.4
20260504023940 41 192 0.0 0.0 0.00 0.00 0.00 75 1019.2
20260504023436 42 192 0.0 0.0 0.00 0.00 0.00 73 1019.4
20260504022932 42 192 0.0 0.0 0.00 0.00 0.00 73 1019.4
20260504022429 42 240 0.0 0.0 0.00 0.00 0.00 73 1019.4
20260504021925 42 228 0.0 0.0 0.00 0.00 0.00 73 1019.1
20260504021422 42 166 0.0 0.0 0.00 0.00 0.00 72 1019.5
20260504020921 42 105 0.0 0.0 0.00 0.00 0.00 74 1019.3
20260504020417 42 105 0.0 0.0 0.00 0.00 0.00 73 1019.2
20260504015913 42 104 0.0 0.0 0.00 0.00 0.00 72 1019.3
20260504015409 42 104 0.0 0.0 0.00 0.00 0.00 70 1019.1
20260504014905 43 106 0.0 0.0 0.00 0.00 0.00 69 1019.1
20260504014401 44 106 0.0 0.0 0.00 0.00 0.00 70 1018.7
20260504013858 45 106 0.0 0.0 0.00 0.00 0.00 68 1018.9
20260504013356 45 106 0.0 0.0 0.00 0.00 0.00 65 1018.9
20260504012847 46 105 0.0 0.0 0.00 0.00 0.00 63 1018.9
20260504012345 46 105 0.0 1.0 0.00 0.00 0.00 63 1018.8
20260504011843 46 232 0.0 0.0 0.00 0.00 0.00 59 1018.8
20260504011339 46 272 0.0 1.0 0.00 0.00 0.00 62 1018.5
20260504010835 46 236 0.0 1.0 0.00 0.00 0.00 63 1018.5
20260504010331 46 221 0.0 0.0 0.00 0.00 0.00 63 1018.6
20260504005828 46 199 0.0 0.0 0.00 0.00 0.00 61 1018.6
20260504005324 47 240 0.0 0.0 0.00 0.00 0.00 58 1018.4
20260504004822 47 190 0.0 0.0 0.00 0.00 0.00 58 1018.4
20260504004320 48 195 0.0 0.0 0.00 0.00 0.00 55 1018.4
20260504003815 49 226 0.0 0.0 0.00 0.00 0.00 54 1018.2
20260504003313 50 218 0.0 0.0 0.00 0.00 0.00 52 1018.2
20260504002809 51 201 0.0 0.0 0.00 0.00 0.00 51 1018.2
20260504002306 52 174 0.0 1.0 0.00 0.00 0.00 48 1018.3
20260504001803 53 263 0.0 0.0 0.00 0.00 0.00 45 1018.0
20260504001300 53 263 0.0 0.0 0.00 0.00 0.00 41 1018.0
20260504000757 54 268 0.0 0.0 0.00 0.00 0.00 38 1018.1
20260504000254 55 268 0.0 0.0 0.00 0.00 0.00 39 1017.9
20260503235752 56 268 0.0 1.0 0.00 0.00 0.00 37 1018.1
20260503235249 56 295 0.0 0.0 0.00 0.00 0.00 37 1018.0
20260503234746 56 288 0.0 4.0 0.00 0.00 0.00 37 1018.2
20260503234245 56 286 0.0 1.0 0.00 0.00 0.00 35 1018.0
20260503233741 57 296 0.0 1.0 0.00 0.00 0.00 37 1018.1
20260503233237 57 277 1.0 2.0 0.00 0.00 0.00 36 1017.9
20260503232734 58 246 0.0 2.0 0.00 0.00 0.00 35 1018.1
20260503232231 58 272 0.0 2.0 0.00 0.00 0.00 37 1018.0
20260503231730 58 302 4.0 6.0 0.00 0.00 0.00 32 1018.1
20260503231227 59 336 2.0 3.0 0.00 0.00 0.00 34 1018.3
20260503230723 59 320 2.0 7.0 0.00 0.00 0.00 32 1018.3
20260503230220 59 258 0.0 3.0 0.00 0.00 0.00 31 1018.2
20260503225717 59 262 0.0 2.0 0.00 0.00 0.00 35 1018.3
20260503225212 59 273 2.0 4.0 0.00 0.00 0.00 32 1018.1
20260503224709 59 300 2.0 3.0 0.00 0.00 0.00 30 1018.4
20260503224207 60 275 3.0 3.0 0.00 0.00 0.00 33 1018.3
20260503223704 59 297 1.0 3.0 0.00 0.00 0.00 34 1018.3
20260503223202 59 240 2.0 3.0 0.00 0.00 0.00 34 1018.1
20260503222658 60 232 5.0 7.0 0.00 0.00 0.00 32 1018.3
20260503222156 60 253 2.0 3.0 0.00 0.00 0.00 34 1018.2
20260503221654 60 301 1.0 2.0 0.00 0.00 0.00 31 1018.2
20260503221151 60 300 0.0 3.0 0.00 0.00 0.00 33 1018.0
20260503220647 60 297 1.0 4.0 0.00 0.00 0.00 34 1018.1
20260503220144 60 269 0.0 2.0 0.00 0.00 0.00 35 1018.1
20260503215641 60 298 2.0 3.0 0.00 0.00 0.00 33 1018.2
20260503215137 60 288 3.0 4.0 0.00 0.00 0.00 30 1018.2
20260503214637 60 304 3.0 6.0 0.00 0.00 0.00 30 1018.3
20260503214132 61 243 2.0 2.0 0.00 0.00 0.00 33 1018.4
20260503213631 62 263 0.0 2.0 0.00 0.00 0.00 34 1018.3
20260503213127 62 240 1.0 3.0 0.00 0.00 0.00 33 1018.5
20260503212625 62 288 2.0 4.0 0.00 0.00 0.00 30 1018.3
20260503212122 62 257 1.0 2.0 0.00 0.00 0.00 32 1018.3
20260503211620 62 221 2.0 3.0 0.00 0.00 0.00 33 1018.4
20260503211115 61 299 2.0 3.0 0.00 0.00 0.00 30 1018.5
20260503210612 64 324 4.0 7.0 0.00 0.00 0.00 26 1018.6
20260503210109 63 76 1.0 3.0 0.00 0.00 0.00 28 1018.6
20260503205604 62 295 3.0 4.0 0.00 0.00 0.00 28 1018.4
20260503205101 62 229 6.0 7.0 0.00 0.00 0.00 33 1018.6
20260503204558 62 73 2.0 2.0 0.00 0.00 0.00 26 1018.6
20260503204055 62 199 4.0 7.0 0.00 0.00 0.00 32 1018.8
20260503203552 62 234 2.0 4.0 0.00 0.00 0.00 34 1018.9
20260503203049 60 317 3.0 4.0 0.00 0.00 0.00 25 1018.8
20260503202547 62 313 6.0 7.0 0.00 0.00 0.00 28 1019.0
20260503202044 62 229 2.0 4.0 0.00 0.00 0.00 29 1018.9
20260503201543 62 230 2.0 6.0 0.00 0.00 0.00 28 1019.2
20260503201039 62 214 1.0 3.0 0.00 0.00 0.00 34 1019.5
20260503200530 62 246 4.0 6.0 0.00 0.00 0.00 35 1019.3
20260503200027 62 227 7.0 9.0 0.00 0.00 0.00 35 1019.4
20260503195524 62 255 1.0 4.0 0.00 0.00 0.00 39 1019.5
20260503195021 61 250 3.0 7.0 0.00 0.00 0.00 34 1019.5
20260503194519 61 224 3.0 6.0 0.00 0.00 0.00 33 1019.7
20260503194018 61 318 1.0 2.0 0.00 0.00 0.00 33 1019.8
20260503193515 62 295 2.0 6.0 0.00 0.00 0.00 35 1020.2
20260503193010 61 277 2.0 9.0 0.00 0.00 0.00 34 1020.1
20260503192507 60 285 3.0 7.0 0.00 0.00 0.00 34 1020.2
20260503192003 60 203 6.0 7.0 0.00 0.00 0.00 36 1020.3
20260503191500 59 254 3.0 7.0 0.00 0.00 0.00 35 1020.2
20260503190956 61 203 1.0 8.0 0.00 0.00 0.00 33 1020.4
20260503190453 60 285 1.0 3.0 0.00 0.00 0.00 40 1020.6
20260503185950 59 179 1.0 8.0 0.00 0.00 0.00 35 1020.7
20260503185446 60 265 3.0 4.0 0.00 0.00 0.00 37 1020.6
20260503184946 58 242 0.0 1.0 0.00 0.00 0.00 34 1020.6
20260503184442 59 313 6.0 7.0 0.00 0.00 0.00 34 1020.6
20260503183938 59 317 1.0 3.0 0.00 0.00 0.00 37 1020.7
20260503183435 60 202 2.0 9.0 0.00 0.00 0.00 34 1020.6
20260503182932 61 203 3.0 6.0 0.00 0.00 0.00 32 1020.8
20260503182431 60 312 1.0 3.0 0.00 0.00 0.00 43 1020.8
20260503181928 60 77 5.0 7.0 0.00 0.00 0.00 33 1020.8
20260503181425 59 304 1.0 3.0 0.00 0.00 0.00 38 1021.0
20260503180921 58 325 2.0 3.0 0.00 0.00 0.00 34 1021.0
20260503180420 58 222 2.0 3.0 0.00 0.00 0.00 37 1021.2
20260503175916 59 223 8.0 8.0 0.00 0.00 0.00 37 1021.1
20260503175414 59 276 2.0 6.0 0.00 0.00 0.00 35 1021.0
20260503174909 58 279 1.0 3.0 0.00 0.00 0.00 38 1021.3
20260503174408 57 342 5.0 7.0 0.00 0.00 0.00 32 1021.3
20260503173903 56 180 1.0 6.0 0.00 0.00 0.00 40 1021.5
20260503173359 57 20 3.0 7.0 0.00 0.00 0.00 36 1021.4
20260503172856 56 229 3.0 4.0 0.00 0.00 0.00 38 1021.6
20260503172354 57 218 3.0 10.0 0.00 0.00 0.00 42 1021.7
20260503171849 57 208 8.0 10.0 0.00 0.00 0.00 33 1021.5
20260503171346 58 215 6.0 8.0 0.00 0.00 0.00 41 1021.6
20260503170844 57 78 0.0 4.0 0.00 0.00 0.00 41 1021.7
20260503170340 56 307 1.0 3.0 0.00 0.00 0.00 44 1021.7
20260503150732 51 286 4.0 7.0 0.00 0.00 0.00 47 1023.0
20260503150228 51 325 1.0 4.0 0.00 0.00 0.00 52 1023.1
20260503140153 46 82 1.0 6.0 0.00 0.00 0.00 52 1023.2
20260503131122 44 216 2.0 6.0 0.00 0.00 0.00 70 1023.0
20260503130620 44 288 1.0 4.0 0.00 0.00 0.00 74 1023.0
20260503130117 43 204 1.0 4.0 0.00 0.00 0.00 71 1023.0
20260503110510 30 153 0.0 0.0 0.00 0.00 0.00 99 1021.9
20260503090356 30 105 0.0 0.0 0.00 0.00 0.00 97 1020.7
20260503081323 32 135 0.0 0.0 0.00 0.00 0.00 96 1020.2
20260503080819 32 244 0.0 0.0 0.00 0.00 0.00 96 1019.9
20260503080316 32 221 0.0 0.0 0.00 0.00 0.00 96 1019.8
20260503072747 33 180 0.0 0.0 0.00 0.00 0.00 95 1019.6
20260503072244 33 127 0.0 0.0 0.00 0.00 0.00 95 1019.6
20260503071740 33 231 0.0 0.0 0.00 0.00 0.00 95 1019.6
20260503071237 33 110 0.0 0.0 0.00 0.00 0.00 94 1019.7
20260503070733 33 176 0.0 0.0 0.00 0.00 0.00 94 1019.6
20260503070232 34 150 0.0 0.0 0.00 0.00 0.00 93 1019.5
20260503060150 34 118 1.0 1.0 0.00 0.00 0.00 94 1019.6
20260503054637 33 165 1.0 2.0 0.00 0.00 0.00 94 1019.3
20260503054135 33 92 0.0 0.0 0.00 0.00 0.00 94 1019.5
20260503053633 33 173 0.0 0.0 0.00 0.00 0.00 94 1019.6
20260503053132 33 133 0.0 0.0 0.00 0.00 0.00 94 1019.4
20260503052627 33 168 0.0 0.0 0.00 0.00 0.00 94 1019.4
20260503052124 33 179 0.0 1.0 0.00 0.00 0.00 94 1019.3
20260503051619 33 174 0.0 0.0 0.00 0.00 0.00 93 1019.4
20260503051117 33 231 0.0 0.0 0.00 0.00 0.00 93 1019.4
20260503050613 33 237 0.0 0.0 0.00 0.00 0.00 93 1019.3
20260503050110 33 264 0.0 0.0 0.00 0.00 0.00 91 1019.1
20260503045607 34 263 0.0 0.0 0.00 0.00 0.00 92 1019.1
20260503045105 34 250 0.0 0.0 0.00 0.00 0.00 91 1019.1
20260503044601 34 254 2.0 2.0 0.00 0.00 0.00 91 1019.0